AirNav   Air Wisconsin Up To $57,000 Bonus
 
 1331 users online  

CA22 Lauppes Strip Airport
Sacramento, California, USA

GOING TO SACRAMENTO?


FAA INFORMATION EFFECTIVE 31 DECEMBER 2020

Location

FAA Identifier: CA22
Lat/Long: 38-45-33.6460N 121-35-06.8520W
38-45.560767N 121-35.114200W
38.7593461,-121.5852367
(estimated)
Elevation: 23 ft. / 7 m (estimated)
Variation: 16E (1985)
From city: 10 miles NW of SACRAMENTO, CA
Time zone: UTC -8 (UTC -7 during Daylight Saving Time)
Zip code: 95659

Airport Operations

Airport use: Private use. Permission required prior to landing
Activation date: 01/1977
Control tower: no
ARTCC: OAKLAND CENTER
FSS: RANCHO MURIETA FLIGHT SERVICE STATION
Attendance: UNATNDD
Wind indicator: no
Segmented circle: no

Airport Communications

WX ASOS at SMF (4 nm S): PHONE 916-649-3996
WX AWOS-3 at MCC (10 nm SE): 125.975 (916-641-1272)
WX AWOS-3 at LHM (14 nm NE): 124.25 (916-645-0698)
WX ASOS at SAC (15 nm S): PHONE 916-421-0923
WX AWOS-3 at EDU (17 nm SW): 119.025 (530-754-6839)
WX AWOS-3P at DWA (17 nm SW): 125.775 (530-750-2759)
WX AWOS-3 at MHR (18 nm SE): 118.325 (916-366-3371)

Nearby radio navigation aids

VOR radial/distance  VOR name  Freq  Var
MCCr286/10.1MC CLELLAN VOR/DME109.2017E
SACr338/19.0SACRAMENTO VORTAC115.2017E
MYVr166/20.4MARYSVILLE VOR/DME110.8016E
ILAr114/27.9WILLIAMS VORTAC114.4018E
HNWr256/39.2HANGTOWN VOR/DME115.5017E

Airport Services

Runway Information

Runway 15/33

Dimensions: 2000 x 30 ft. / 610 x 9 m
Surface: dirt
RUNWAY 15  RUNWAY 33
Traffic pattern: leftleft

Airport Ownership and Management from official FAA records

Ownership: Privately-owned
Owner: ALAN LAUPPE
8913 CREESTONE CIR.
ROSEVILLE, CA 95747
Phone (916) 765-1367

Airport Operational Statistics

Aircraft based on the field: 2
Single engine airplanes: 2
    

Additional Remarks

E111-2 ESTAB & MAINT RDO COMM WITH SACRAMENTO ATCT WITHIN THE SACRAMENTO METRO CTL ZONE.
FOR CD CTC NORCAL APCH AT 916-361-6874.

Instrument Procedures

There are no published instrument procedures at CA22.

Some nearby airports with instrument procedures:

KSMF - Sacramento International Airport (4 nm S)
KMCC - Mc Clellan Airfield (10 nm SE)
KLHM - Lincoln Regional Airport/Karl Harder Field (14 nm NE)
O41 - Watts-Woodland Airport (14 nm W)
KSAC - Sacramento Exec Airport (15 nm S)
KEDU - University Airport (17 nm SW)
KDWA - Yolo County Airport (17 nm SW)
KMHR - Sacramento Mather Airport (18 nm SE)
 
Loc | Ops | Rwys | IFR | FBO | Links
Com | Nav | Svcs | Stats | Notes

Sonoma Jet Center
 
Area around CA22 (Lauppes Strip Airport)
 
Road maps at: MapQuest Bing Google
 
Aerial photo
No photo
 
Sectional chart

 
Airport distance calculator
Flying to Lauppes Strip Airport? Find the distance to fly.

From to CA22

Sunrise and sunset
Times for 18-Jan-2021
 Local
(UTC-8)
 Zulu
(UTC)
Morning civil twilight06:5414:54
Sunrise07:2315:23
Sunset17:1101:11
Evening civil twilight17:4001:40

Current date and time
Zulu (UTC)  18-Jan-2021 16:12:35
Local (UTC-8)  18-Jan-2021 08:12:35
 
METAR
KSMF 
4nm S 
181553Z 33023G30KT 10SM FEW250 14/M03 A2998 RMK AO2 PK WND 34030/1553 SLP151 T01391033
KMCC 
10nm SE 
181555Z AUTO 34013KT 10SM CLR 14/M01 A2997 RMK AO2
KLHM 
14nm NE 
181555Z AUTO 34018KT 10SM CLR 12/00 A2998 RMK AO1
KSAC 
16nm S 
181553Z 33018G24KT 10SM CLR 14/M03 A2997 RMK AO2 SLP149 T01441028
KEDU 
17nm SW 
181555Z AUTO 35018G31KT 10SM CLR 16/M08 A3000 RMK AO1
KDWA 
17nm SW 
181555Z AUTO 33022G34KT 10SM CLR 16/M08 A3002 RMK AO2
KMHR 
20nm SE 
181546Z 33010KT 10SM SKC 12/01 A2994
TAF
KSMF 
4nm S 
181154Z 1812/1912 19005KT P6SM SKC TEMPO 1812/1814 4SM BR FM181400 33015KT P6SM SKC FM181900 34017G24KT P6SM SKC FM182200 34024G31KT P6SM SKC
KMCC 
10nm SE 
181154Z 1812/1912 36010KT P6SM SKC FM181900 34010G17KT P6SM SKC FM182100 34017G23KT P6SM SKC
KSAC 
16nm S 
181154Z 1812/1912 34005KT P6SM SKC TEMPO 1812/1814 4SM BR FM181400 33010G17KT P6SM SKC FM182100 34017G24KT P6SM SKC
KMHR 
20nm SE 
181356Z 1814/1912 36010G16KT P6SM SKC FM181900 34010G17KT P6SM SKC FM182100 34017G23KT P6SM SKC
NOTAMs
Click for the latest NOTAMs
NOTAMs are issued by the DoD/FAA and will open in a separate window not controlled by AirNav.

 

 
 

Would you like to see your business listed on this page?

 If your business provides an interesting product or service to pilots, flight crews, aircraft, or users of the Lauppes Strip Airport, you should consider listing it here.  To start the listing process, click on the button below
 
Add a business
 

Other Pages about Lauppes Strip Airport

Update a link
 
Copyright © AirNav, LLC. All rights reserved. Privacy Policy  Contact